Time,TemperatureF,DewpointF,PressureIn,WindDirection,WindDirectionDegrees,WindSpeedMPH,WindSpeedGustMPH,Humidity,HourlyPrecipIn,Conditions,Clouds,dailyrainin,SoftwareType,DateUTC
2013-05-19 00:01:00,54.5,52.5,30.34,West,259,0.0,0.0,93,0.00,,BKN200,0.00,VWS V14.00,2013-05-19 04:01:00,
2013-05-19 00:02:00,54.5,52.5,30.34,West,259,0.0,0.0,93,0.00,,BKN200,0.00,VWS V14.00,2013-05-19 04:02:00,
2013-05-19 00:07:00,54.5,52.5,30.34,West,259,0.0,0.0,93,0.00,,BKN200,0.00,VWS V14.00,2013-05-19 04:07:00,
2013-05-19 00:12:00,54.5,52.5,30.33,West,259,0.0,0.0,93,0.00,,BKN200,0.00,VWS V14.00,2013-05-19 04:12:00,
2013-05-19 00:17:00,54.5,52.6,30.33,West,259,0.0,0.0,93,0.00,,BKN200,0.00,VWS V14.00,2013-05-19 04:17:00,
2013-05-19 00:22:00,54.5,52.6,30.33,West,259,0.0,0.0,93,0.00,,BKN200,0.00,VWS V14.00,2013-05-19 04:22:00,
2013-05-19 00:27:00,54.4,52.5,30.33,West,259,0.0,0.0,93,0.00,,BKN200,0.00,VWS V14.00,2013-05-19 04:27:00,
2013-05-19 00:32:00,54.4,52.6,30.33,West,259,0.0,0.0,94,0.00,,BKN200,0.00,VWS V14.00,2013-05-19 04:32:00,
2013-05-19 00:38:00,54.4,52.6,30.33,West,259,0.0,0.0,94,0.00,,BKN200,0.00,VWS V14.00,2013-05-19 04:38:00,
2013-05-19 00:43:00,54.4,52.6,30.33,West,259,0.0,0.0,94,0.00,,BKN200,0.00,VWS V14.00,2013-05-19 04:43:00,
2013-05-19 00:48:00,54.4,52.7,30.33,West,259,0.0,0.0,94,0.00,,BKN200,0.00,VWS V14.00,2013-05-19 04:48:00,
2013-05-19 00:53:00,54.3,52.6,30.33,West,259,0.0,0.0,94,0.00,,BKN200,0.00,VWS V14.00,2013-05-19 04:53:00,
2013-05-19 00:58:00,54.3,52.6,30.33,West,259,0.0,0.0,94,0.00,,BKN200,0.00,VWS V14.00,2013-05-19 04:58:00,
2013-05-19 01:03:00,54.3,52.6,30.33,West,259,0.0,0.0,94,0.00,,BKN200,0.00,VWS V14.00,2013-05-19 05:03:00,
2013-05-19 01:08:00,54.4,52.7,30.33,West,259,0.0,0.0,94,0.00,,BKN200,0.00,VWS V14.00,2013-05-19 05:08:00,
2013-05-19 01:13:00,54.4,52.7,30.33,West,259,0.0,0.0,94,0.00,,BKN200,0.00,VWS V14.00,2013-05-19 05:13:00,
2013-05-19 01:18:00,54.4,52.8,30.32,West,259,0.0,0.0,94,0.00,,BKN200,0.00,VWS V14.00,2013-05-19 05:18:00,
2013-05-19 01:24:00,54.3,52.7,30.33,West,259,0.0,0.0,94,0.00,,BKN200,0.00,VWS V14.00,2013-05-19 05:24:00,
2013-05-19 01:29:00,54.3,52.7,30.32,West,259,0.0,0.0,94,0.00,,BKN200,0.00,VWS V14.00,2013-05-19 05:29:00,
2013-05-19 01:34:00,54.3,52.8,30.32,West,259,0.0,0.0,94,0.00,,BKN200,0.00,VWS V14.00,2013-05-19 05:34:00,
2013-05-19 01:39:00,54.3,52.8,30.32,West,259,0.0,0.0,94,0.00,,BKN200,0.00,VWS V14.00,2013-05-19 05:39:00,
2013-05-19 01:44:00,54.3,52.8,30.32,West,259,0.0,0.0,95,0.00,,BKN200,0.00,VWS V14.00,2013-05-19 05:44:00,
2013-05-19 01:49:00,54.3,52.8,30.32,West,259,0.0,0.0,95,0.00,,BKN200,0.00,VWS V14.00,2013-05-19 05:49:00,
2013-05-19 01:54:00,54.3,52.8,30.32,West,259,0.0,0.0,95,0.00,,BKN200,0.00,VWS V14.00,2013-05-19 05:54:00,
2013-05-19 01:59:00,54.3,52.8,30.32,West,259,0.0,0.0,95,0.00,,BKN200,0.00,VWS V14.00,2013-05-19 05:59:00,
2013-05-19 02:04:00,54.3,52.8,30.32,West,259,0.0,0.0,95,0.00,,BKN200,0.00,VWS V14.00,2013-05-19 06:04:00,
2013-05-19 02:09:00,54.2,52.8,30.31,West,259,0.0,0.0,95,0.00,,BKN200,0.00,VWS V14.00,2013-05-19 06:09:00,
2013-05-19 02:15:00,54.2,52.8,30.32,West,259,0.0,0.0,95,0.00,,BKN200,0.00,VWS V14.00,2013-05-19 06:15:00,
2013-05-19 02:20:00,54.3,52.9,30.32,West,259,0.0,0.0,95,0.00,,BKN200,0.00,VWS V14.00,2013-05-19 06:20:00,
2013-05-19 02:25:00,54.3,52.9,30.32,West,259,0.0,0.0,95,0.00,,BKN200,0.00,VWS V14.00,2013-05-19 06:25:00,
2013-05-19 02:30:00,54.2,52.8,30.32,West,259,0.0,0.0,95,0.00,,BKN200,0.00,VWS V14.00,2013-05-19 06:30:00,
2013-05-19 02:35:00,54.3,52.9,30.32,West,259,0.0,0.0,95,0.00,,BKN200,0.00,VWS V14.00,2013-05-19 06:35:00,
2013-05-19 02:40:00,54.2,52.8,30.32,West,259,0.0,0.0,95,0.00,,BKN200,0.00,VWS V14.00,2013-05-19 06:40:00,
2013-05-19 02:45:00,54.2,52.9,30.32,West,259,0.0,0.0,95,0.00,,BKN200,0.00,VWS V14.00,2013-05-19 06:45:00,
2013-05-19 02:50:00,54.3,53.0,30.32,West,259,0.0,0.0,95,0.00,,BKN200,0.00,VWS V14.00,2013-05-19 06:50:00,
2013-05-19 02:55:00,54.3,53.0,30.32,West,259,0.0,0.0,95,0.00,,BKN200,0.00,VWS V14.00,2013-05-19 06:55:00,
2013-05-19 03:00:00,54.2,52.9,30.31,West,259,0.0,0.0,95,0.00,,BKN200,0.00,VWS V14.00,2013-05-19 07:00:00,
2013-05-19 03:06:00,54.2,52.9,30.32,West,259,0.0,0.0,95,0.00,,BKN200,0.00,VWS V14.00,2013-05-19 07:06:00,
2013-05-19 03:11:00,54.0,52.6,30.32,West,259,0.0,0.0,95,0.00,,BKN200,0.00,VWS V14.00,2013-05-19 07:11:00,
2013-05-19 03:16:00,53.9,52.5,30.32,West,259,0.0,0.0,95,0.00,,BKN200,0.00,VWS V14.00,2013-05-19 07:16:00,
2013-05-19 03:21:00,53.9,52.5,30.32,West,259,0.0,0.0,95,0.00,,BKN200,0.00,VWS V14.00,2013-05-19 07:21:00,
2013-05-19 03:27:00,53.7,52.3,30.32,West,259,0.0,0.0,95,0.00,,BKN200,0.00,VWS V14.00,2013-05-19 07:27:00,
2013-05-19 03:32:00,53.7,52.2,30.32,West,259,0.0,0.0,95,0.00,,BKN200,0.00,VWS V14.00,2013-05-19 07:32:00,
2013-05-19 03:37:00,53.6,52.2,30.33,West,259,0.0,0.0,95,0.00,,BKN200,0.00,VWS V14.00,2013-05-19 07:37:00,
2013-05-19 03:42:00,53.7,52.2,30.33,West,259,0.0,0.0,95,0.00,,BKN200,0.00,VWS V14.00,2013-05-19 07:42:00,
2013-05-19 03:47:00,53.7,52.2,30.32,West,259,0.0,0.0,95,0.00,,BKN200,0.00,VWS V14.00,2013-05-19 07:47:00,
2013-05-19 03:52:00,53.7,52.2,30.33,West,259,0.0,0.0,95,0.00,,BKN200,0.00,VWS V14.00,2013-05-19 07:52:00,
2013-05-19 03:57:00,53.8,52.3,30.32,West,259,0.0,0.0,95,0.00,,BKN200,0.00,VWS V14.00,2013-05-19 07:57:00,
2013-05-19 04:02:00,53.8,52.3,30.33,West,259,0.0,0.0,95,0.00,,BKN120,0.00,VWS V14.00,2013-05-19 08:02:00,
2013-05-19 04:07:00,53.9,52.4,30.32,West,259,0.0,0.0,95,0.00,,BKN120,0.00,VWS V14.00,2013-05-19 08:07:00,
2013-05-19 04:12:00,54.0,52.5,30.32,West,259,0.0,0.0,95,0.00,,BKN120,0.00,VWS V14.00,2013-05-19 08:12:00,
2013-05-19 04:18:00,54.1,52.6,30.32,West,259,0.0,0.0,95,0.00,,BKN120,0.00,VWS V14.00,2013-05-19 08:18:00,
2013-05-19 04:23:00,54.2,52.7,30.33,West,259,0.0,0.0,95,0.00,,BKN120,0.00,VWS V14.00,2013-05-19 08:23:00,
2013-05-19 04:28:00,54.2,52.7,30.32,West,259,0.0,0.0,95,0.00,,BKN120,0.00,VWS V14.00,2013-05-19 08:28:00,
2013-05-19 04:33:00,54.3,52.8,30.32,West,259,0.0,0.0,94,0.00,,BKN120,0.00,VWS V14.00,2013-05-19 08:33:00,
2013-05-19 04:38:00,54.3,52.8,30.32,West,259,0.0,0.0,94,0.00,,BKN120,0.00,VWS V14.00,2013-05-19 08:38:00,
2013-05-19 04:43:00,54.2,52.7,30.32,West,259,0.0,0.0,94,0.00,,BKN120,0.00,VWS V14.00,2013-05-19 08:43:00,
2013-05-19 04:48:00,54.3,52.7,30.32,West,259,0.0,0.0,94,0.00,,BKN120,0.00,VWS V14.00,2013-05-19 08:48:00,
2013-05-19 04:53:00,54.3,52.7,30.33,West,259,0.0,0.0,94,0.00,,BKN120,0.00,VWS V14.00,2013-05-19 08:53:00,
2013-05-19 04:58:00,54.3,52.7,30.33,West,259,0.0,0.0,94,0.00,,BKN120,0.00,VWS V14.00,2013-05-19 08:58:00,
2013-05-19 05:03:00,54.3,52.7,30.32,West,259,0.0,0.0,94,0.00,,OVC085,0.00,VWS V14.00,2013-05-19 09:03:00,
2013-05-19 05:08:00,54.4,52.8,30.33,West,259,0.0,0.0,94,0.00,,OVC085,0.00,VWS V14.00,2013-05-19 09:08:00,
2013-05-19 05:14:00,54.3,52.7,30.32,West,259,0.0,0.0,94,0.00,,OVC085,0.00,VWS V14.00,2013-05-19 09:14:00,
2013-05-19 05:19:00,54.4,52.8,30.32,West,259,0.0,0.0,94,0.00,,OVC085,0.00,VWS V14.00,2013-05-19 09:19:00,
2013-05-19 05:24:00,54.5,52.9,30.33,West,259,0.0,0.0,94,0.00,,OVC085,0.00,VWS V14.00,2013-05-19 09:24:00,
2013-05-19 05:29:00,54.5,52.9,30.33,West,259,0.0,0.0,94,0.00,,OVC085,0.00,VWS V14.00,2013-05-19 09:29:00,
2013-05-19 05:34:00,54.6,53.0,30.33,West,259,0.0,0.0,94,0.00,,OVC085,0.00,VWS V14.00,2013-05-19 09:34:00,
2013-05-19 05:39:00,54.6,53.0,30.33,West,259,0.0,0.0,94,0.00,,OVC085,0.00,VWS V14.00,2013-05-19 09:39:00,
2013-05-19 05:44:00,54.7,53.1,30.33,West,259,0.0,0.0,94,0.00,,OVC085,0.00,VWS V14.00,2013-05-19 09:44:00,
2013-05-19 05:50:00,54.8,53.2,30.33,West,259,0.0,0.0,94,0.00,,OVC085,0.00,VWS V14.00,2013-05-19 09:50:00,
2013-05-19 05:55:00,54.9,53.4,30.34,West,259,0.0,0.0,95,0.00,,OVC085,0.00,VWS V14.00,2013-05-19 09:55:00,
2013-05-19 06:00:00,54.9,53.4,30.34,West,259,0.0,0.0,95,0.00,,OVC085,0.00,VWS V14.00,2013-05-19 10:00:00,
2013-05-19 06:05:00,55.0,53.5,30.34,West,259,0.0,0.0,95,0.00,,OVC085,0.00,VWS V14.00,2013-05-19 10:05:00,
2013-05-19 06:10:00,55.0,53.5,30.34,West,259,0.0,0.0,95,0.00,,OVC085,0.00,VWS V14.00,2013-05-19 10:10:00,
2013-05-19 06:15:00,55.1,53.7,30.34,West,259,0.0,0.0,95,0.00,,OVC085,0.00,VWS V14.00,2013-05-19 10:15:00,
2013-05-19 06:20:00,55.1,53.7,30.34,West,259,0.0,0.0,95,0.00,,OVC085,0.00,VWS V14.00,2013-05-19 10:20:00,
2013-05-19 06:25:00,55.2,53.8,30.34,West,259,0.0,0.0,95,0.00,,OVC085,0.00,VWS V14.00,2013-05-19 10:25:00,
2013-05-19 06:30:00,55.3,54.0,30.34,West,259,0.0,0.0,95,0.00,,OVC085,0.00,VWS V14.00,2013-05-19 10:30:00,
2013-05-19 06:35:00,55.3,54.0,30.34,West,259,0.0,0.0,95,0.01,,OVC085,0.01,VWS V14.00,2013-05-19 10:35:00,
2013-05-19 06:40:00,55.3,54.1,30.34,West,259,0.0,0.0,96,0.01,,OVC085,0.01,VWS V14.00,2013-05-19 10:40:00,
2013-05-19 06:46:00,55.4,54.2,30.34,West,259,0.0,0.0,96,0.01,,OVC085,0.01,VWS V14.00,2013-05-19 10:46:00,
2013-05-19 06:51:00,55.4,54.2,30.34,West,259,0.0,0.0,96,0.01,,OVC085,0.01,VWS V14.00,2013-05-19 10:51:00,
2013-05-19 06:56:00,55.4,54.3,30.34,West,259,0.0,0.0,96,0.01,,OVC085,0.01,VWS V14.00,2013-05-19 10:56:00,
2013-05-19 07:01:00,55.4,54.4,30.35,West,259,0.0,0.0,96,0.01,,BKN250,0.01,VWS V14.00,2013-05-19 11:01:00,
2013-05-19 07:06:00,55.4,54.4,30.34,West,259,0.0,0.0,96,0.01,,BKN250,0.01,VWS V14.00,2013-05-19 11:06:00,
2013-05-19 07:11:00,55.4,54.5,30.34,West,259,0.0,0.0,97,0.01,,BKN250,0.01,VWS V14.00,2013-05-19 11:11:00,
2013-05-19 07:16:00,55.5,54.6,30.35,West,259,0.0,0.0,97,0.00,,BKN250,0.01,VWS V14.00,2013-05-19 11:16:00,
2013-05-19 07:21:00,55.5,54.7,30.35,West,259,0.0,0.0,97,0.00,,BKN250,0.01,VWS V14.00,2013-05-19 11:21:00,
2013-05-19 07:27:00,55.5,54.7,30.34,West,259,0.0,0.0,97,0.00,,BKN250,0.01,VWS V14.00,2013-05-19 11:27:00,
2013-05-19 07:33:00,55.5,54.8,30.35,West,259,0.0,0.0,98,0.00,,BKN250,0.01,VWS V14.00,2013-05-19 11:33:00,
2013-05-19 07:38:00,55.6,55.0,30.34,West,259,0.0,0.0,98,0.00,,BKN250,0.01,VWS V14.00,2013-05-19 11:38:00,
2013-05-19 07:44:00,55.6,55.0,30.34,West,259,0.0,0.0,98,0.00,,BKN250,0.01,VWS V14.00,2013-05-19 11:44:00,
2013-05-19 07:49:00,55.7,55.2,30.34,West,259,0.0,0.0,98,0.01,,BKN250,0.02,VWS V14.00,2013-05-19 11:49:00,
2013-05-19 07:54:00,55.7,55.2,30.35,West,259,0.0,0.0,98,0.01,,BKN250,0.02,VWS V14.00,2013-05-19 11:54:00,
2013-05-19 07:59:00,55.7,55.2,30.35,West,259,0.0,0.0,98,0.01,,BKN250,0.02,VWS V14.00,2013-05-19 11:59:00,
2013-05-19 08:04:00,55.7,55.3,30.35,West,259,0.0,0.0,98,0.01,,BKN250,0.02,VWS V14.00,2013-05-19 12:04:00,
2013-05-19 08:09:00,55.7,55.3,30.34,West,259,0.0,0.0,99,0.01,,BKN250,0.02,VWS V14.00,2013-05-19 12:09:00,
2013-05-19 08:14:00,55.7,55.4,30.35,West,259,0.0,0.0,99,0.01,,BKN250,0.02,VWS V14.00,2013-05-19 12:14:00,
2013-05-19 08:19:00,55.8,55.5,30.35,West,259,0.0,0.0,99,0.01,,BKN250,0.02,VWS V14.00,2013-05-19 12:19:00,
2013-05-19 08:24:00,55.9,55.6,30.35,West,259,0.0,0.0,99,0.01,,BKN250,0.02,VWS V14.00,2013-05-19 12:24:00,
2013-05-19 08:30:00,55.9,55.7,30.34,West,259,0.0,0.0,99,0.01,,BKN250,0.02,VWS V14.00,2013-05-19 12:30:00,
2013-05-19 08:35:00,55.9,55.7,30.35,West,259,0.0,0.0,99,0.01,,BKN250,0.02,VWS V14.00,2013-05-19 12:35:00,
2013-05-19 08:40:00,55.9,55.7,30.34,West,259,0.0,0.0,99,0.01,,BKN250,0.02,VWS V14.00,2013-05-19 12:40:00,
2013-05-19 08:45:00,56.0,55.8,30.35,West,259,0.0,0.0,99,0.00,,BKN250,0.02,VWS V14.00,2013-05-19 12:45:00,
2013-05-19 08:50:00,56.0,55.8,30.35,West,259,0.0,0.0,99,0.00,,BKN250,0.02,VWS V14.00,2013-05-19 12:50:00,
2013-05-19 08:55:00,56.1,56.0,30.36,West,259,0.0,0.0,100,0.00,,BKN250,0.02,VWS V14.00,2013-05-19 12:55:00,
2013-05-19 09:00:00,56.0,55.9,30.36,West,259,0.0,0.0,100,0.00,,SHRA,0.02,VWS V14.00,2013-05-19 13:00:00,
2013-05-19 09:05:00,56.0,55.9,30.36,West,259,0.0,0.0,100,0.00,,SHRA,0.02,VWS V14.00,2013-05-19 13:05:00,
2013-05-19 09:10:00,56.0,55.9,30.35,West,259,0.0,0.0,100,0.00,,SHRA,0.02,VWS V14.00,2013-05-19 13:10:00,
2013-05-19 09:16:00,56.0,55.9,30.36,West,259,0.0,0.0,100,0.00,,SHRA,0.02,VWS V14.00,2013-05-19 13:16:00,
2013-05-19 09:21:00,56.0,55.9,30.36,SW,229,0.0,0.0,100,0.00,,SHRA,0.02,VWS V14.00,2013-05-19 13:21:00,
2013-05-19 09:26:00,56.1,56.0,30.36,SW,229,0.0,0.0,100,0.00,,SHRA,0.02,VWS V14.00,2013-05-19 13:26:00,
2013-05-19 09:31:00,56.3,56.2,30.36,SW,229,0.0,0.0,100,0.00,,SHRA,0.02,VWS V14.00,2013-05-19 13:31:00,
2013-05-19 09:36:00,56.3,56.2,30.36,SW,229,0.0,0.0,100,0.00,,SHRA,0.02,VWS V14.00,2013-05-19 13:36:00,
2013-05-19 09:41:00,56.3,56.3,30.36,SW,229,0.0,0.0,100,0.00,,SHRA,0.02,VWS V14.00,2013-05-19 13:41:00,
2013-05-19 09:46:00,56.3,56.3,30.36,SW,229,0.0,0.0,100,0.00,,SHRA,0.02,VWS V14.00,2013-05-19 13:46:00,
2013-05-19 09:51:00,56.2,56.2,30.36,SW,229,0.0,0.0,100,0.00,,SHRA,0.02,VWS V14.00,2013-05-19 13:51:00,
2013-05-19 09:56:00,56.3,56.3,30.36,SW,229,0.0,0.0,100,0.00,,SHRA,0.02,VWS V14.00,2013-05-19 13:56:00,
2013-05-19 10:01:00,56.2,56.2,30.36,SW,229,0.0,0.0,100,0.00,,OVC025,0.02,VWS V14.00,2013-05-19 14:01:00,
2013-05-19 10:07:00,56.2,56.2,30.36,SW,229,0.0,0.0,100,0.00,,OVC025,0.02,VWS V14.00,2013-05-19 14:07:00,
2013-05-19 10:12:00,56.2,56.2,30.35,SW,229,0.0,0.0,100,0.00,,OVC025,0.02,VWS V14.00,2013-05-19 14:12:00,
2013-05-19 10:17:00,56.3,56.3,30.36,SW,229,0.0,0.0,100,0.01,,OVC025,0.03,VWS V14.00,2013-05-19 14:17:00,
2013-05-19 10:22:00,56.4,56.4,30.36,SW,229,0.0,0.0,100,0.01,,OVC025,0.03,VWS V14.00,2013-05-19 14:22:00,
2013-05-19 10:27:00,56.4,56.4,30.36,SW,229,0.0,0.0,100,0.01,,OVC025,0.03,VWS V14.00,2013-05-19 14:27:00,
2013-05-19 10:32:00,56.4,56.4,30.36,SW,229,0.0,0.0,100,0.01,,OVC025,0.03,VWS V14.00,2013-05-19 14:32:00,
2013-05-19 10:37:00,56.5,56.5,30.36,SW,229,0.0,0.0,100,0.01,,OVC025,0.03,VWS V14.00,2013-05-19 14:37:00,
2013-05-19 10:42:00,56.5,56.5,30.36,West,260,0.0,3.5,100,0.01,,OVC025,0.03,VWS V14.00,2013-05-19 14:42:00,
2013-05-19 10:47:00,56.6,56.6,30.36,West,260,0.0,3.5,100,0.01,,OVC025,0.03,VWS V14.00,2013-05-19 14:47:00,
2013-05-19 10:52:00,56.6,56.6,30.36,West,260,0.0,0.0,100,0.01,,OVC025,0.03,VWS V14.00,2013-05-19 14:52:00,
2013-05-19 10:57:00,56.6,56.6,30.37,West,260,0.0,0.0,100,0.01,,OVC025,0.03,VWS V14.00,2013-05-19 14:57:00,
2013-05-19 11:02:00,56.6,56.6,30.36,West,260,0.0,0.0,100,0.01,,,0.03,VWS V14.00,2013-05-19 15:02:00,
2013-05-19 11:07:00,56.5,56.5,30.36,West,260,0.0,0.0,100,0.00,,,0.03,VWS V14.00,2013-05-19 15:07:00,
2013-05-19 11:12:00,56.6,56.6,30.36,West,260,0.0,0.0,100,0.01,,,0.04,VWS V14.00,2013-05-19 15:12:00,
2013-05-19 11:18:00,56.7,56.7,30.36,West,260,0.0,0.0,100,0.01,,,0.04,VWS V14.00,2013-05-19 15:18:00,
2013-05-19 11:23:00,56.7,56.7,30.36,West,260,0.0,0.0,100,0.01,,,0.04,VWS V14.00,2013-05-19 15:23:00,
2013-05-19 11:28:00,56.7,56.7,30.36,West,260,0.0,0.0,100,0.01,,,0.04,VWS V14.00,2013-05-19 15:28:00,
2013-05-19 11:33:00,56.6,56.6,30.36,West,260,0.0,0.0,100,0.01,,,0.04,VWS V14.00,2013-05-19 15:33:00,
2013-05-19 11:38:00,56.7,56.7,30.36,West,260,0.0,0.0,100,0.01,,,0.04,VWS V14.00,2013-05-19 15:38:00,
2013-05-19 11:43:00,56.7,56.7,30.36,West,260,0.0,0.0,100,0.02,,,0.05,VWS V14.00,2013-05-19 15:43:00,
2013-05-19 11:48:00,56.6,56.6,30.36,West,260,0.0,0.0,100,0.02,,,0.05,VWS V14.00,2013-05-19 15:48:00,
2013-05-19 11:53:00,56.6,56.6,30.36,West,260,0.0,0.0,100,0.01,,,0.05,VWS V14.00,2013-05-19 15:53:00,
2013-05-19 11:58:00,56.7,56.7,30.36,West,260,0.0,0.0,100,0.01,,,0.05,VWS V14.00,2013-05-19 15:58:00,
2013-05-19 12:04:00,56.6,56.6,30.36,West,260,0.0,0.0,100,0.01,,,0.05,VWS V14.00,2013-05-19 16:04:00,
2013-05-19 12:09:00,56.5,56.5,30.35,West,260,0.0,0.0,100,0.02,,,0.06,VWS V14.00,2013-05-19 16:09:00,
2013-05-19 12:14:00,56.4,56.4,30.35,West,260,0.0,0.0,100,0.02,,,0.06,VWS V14.00,2013-05-19 16:14:00,
2013-05-19 12:19:00,56.5,56.5,30.35,West,260,0.0,0.0,100,0.02,,,0.06,VWS V14.00,2013-05-19 16:19:00,
2013-05-19 12:24:00,56.4,56.4,30.35,West,260,0.0,0.0,100,0.03,,,0.07,VWS V14.00,2013-05-19 16:24:00,
2013-05-19 12:29:00,56.3,56.3,30.34,West,260,0.0,0.0,100,0.02,,,0.07,VWS V14.00,2013-05-19 16:29:00,
2013-05-19 12:34:00,56.3,56.3,30.34,West,260,0.0,0.0,100,0.02,,,0.07,VWS V14.00,2013-05-19 16:34:00,
2013-05-19 12:39:00,56.3,56.3,30.34,West,260,0.0,0.0,100,0.02,,,0.07,VWS V14.00,2013-05-19 16:39:00,
2013-05-19 12:44:00,56.3,56.3,30.35,West,260,0.0,3.4,100,0.02,,,0.07,VWS V14.00,2013-05-19 16:44:00,
2013-05-19 12:49:00,56.2,56.2,30.35,South,190,0.0,5.9,100,0.02,,,0.07,VWS V14.00,2013-05-19 16:49:00,
2013-05-19 12:55:00,56.3,56.3,30.34,South,190,0.0,0.0,100,0.03,,,0.08,VWS V14.00,2013-05-19 16:55:00,
2013-05-19 13:00:00,56.3,56.3,30.33,South,190,0.0,0.0,100,0.02,,,0.08,VWS V14.00,2013-05-19 17:00:00,
2013-05-19 13:05:00,56.2,56.2,30.34,South,190,0.0,0.0,100,0.02,,,0.08,VWS V14.00,2013-05-19 17:05:00,
2013-05-19 13:10:00,56.3,56.3,30.34,South,190,0.0,0.0,100,0.02,,,0.08,VWS V14.00,2013-05-19 17:10:00,
2013-05-19 13:15:00,56.1,56.1,30.33,South,190,0.0,0.0,100,0.02,,,0.08,VWS V14.00,2013-05-19 17:15:00,
2013-05-19 13:20:00,56.2,56.2,30.33,South,190,0.0,0.0,100,0.02,,,0.08,VWS V14.00,2013-05-19 17:20:00,
2013-05-19 13:25:00,56.2,56.2,30.33,South,190,0.0,0.0,100,0.02,,,0.08,VWS V14.00,2013-05-19 17:25:00,
2013-05-19 13:30:00,56.3,56.3,30.33,South,190,0.0,0.0,100,0.01,,,0.08,VWS V14.00,2013-05-19 17:30:00,
2013-05-19 13:35:00,56.3,56.3,30.33,South,190,0.0,0.0,100,0.01,,,0.08,VWS V14.00,2013-05-19 17:35:00,
2013-05-19 13:40:00,56.3,56.3,30.33,South,190,0.0,0.0,100,0.01,,,0.08,VWS V14.00,2013-05-19 17:40:00,
2013-05-19 13:45:00,56.4,56.4,30.32,South,190,0.0,0.0,100,0.02,,,0.09,VWS V14.00,2013-05-19 17:45:00,
2013-05-19 13:50:00,56.4,56.4,30.32,South,190,0.0,0.0,100,0.02,,,0.09,VWS V14.00,2013-05-19 17:50:00,
2013-05-19 13:56:00,56.4,56.4,30.32,South,190,0.0,0.0,100,0.02,,,0.09,VWS V14.00,2013-05-19 17:56:00,
2013-05-19 14:01:00,56.4,56.4,30.33,South,190,0.0,0.0,100,0.02,,-RA,0.09,VWS V14.00,2013-05-19 18:01:00,
2013-05-19 14:06:00,56.5,56.5,30.32,South,190,0.0,0.0,100,0.01,,-RA,0.09,VWS V14.00,2013-05-19 18:06:00,
2013-05-19 14:11:00,56.5,56.5,30.32,South,190,0.0,0.0,100,0.01,,-RA,0.09,VWS V14.00,2013-05-19 18:11:00,
2013-05-19 14:16:00,56.6,56.6,30.32,South,190,0.0,0.0,100,0.01,,-RA,0.09,VWS V14.00,2013-05-19 18:16:00,
2013-05-19 14:21:00,56.4,56.4,30.33,South,190,0.0,0.0,100,0.02,,-RA,0.10,VWS V14.00,2013-05-19 18:21:00,
2013-05-19 14:26:00,56.4,56.4,30.33,South,190,0.0,0.0,100,0.02,,-RA,0.10,VWS V14.00,2013-05-19 18:26:00,
2013-05-19 14:31:00,56.3,56.3,30.32,South,190,0.0,0.0,100,0.02,,-RA,0.10,VWS V14.00,2013-05-19 18:31:00,
2013-05-19 14:36:00,56.4,56.4,30.31,South,190,0.0,0.0,100,0.02,,-RA,0.10,VWS V14.00,2013-05-19 18:36:00,
2013-05-19 14:42:00,56.4,56.4,30.32,South,190,0.0,0.0,100,0.01,,-RA,0.10,VWS V14.00,2013-05-19 18:42:00,
2013-05-19 14:47:00,56.6,56.6,30.32,South,190,0.0,0.0,100,0.02,,-RA,0.11,VWS V14.00,2013-05-19 18:47:00,
2013-05-19 14:52:00,56.4,56.4,30.32,South,190,0.0,0.0,100,0.02,,-RA,0.11,VWS V14.00,2013-05-19 18:52:00,
2013-05-19 14:57:00,56.5,56.5,30.31,South,190,0.0,0.0,100,0.02,,-RA,0.11,VWS V14.00,2013-05-19 18:57:00,
2013-05-19 15:02:00,56.6,56.6,30.31,South,190,0.0,0.0,100,0.02,,-RA,0.11,VWS V14.00,2013-05-19 19:02:00,
2013-05-19 15:07:00,56.7,56.7,30.31,South,190,0.0,0.0,100,0.03,,-RA,0.12,VWS V14.00,2013-05-19 19:07:00,
2013-05-19 15:12:00,56.9,56.9,30.30,South,190,0.0,0.0,100,0.02,,-RA,0.12,VWS V14.00,2013-05-19 19:12:00,
2013-05-19 15:17:00,56.9,56.9,30.29,South,190,0.0,0.0,100,0.02,,-RA,0.12,VWS V14.00,2013-05-19 19:17:00,
2013-05-19 15:22:00,57.0,57.0,30.29,South,190,0.0,0.0,100,0.02,,-RA,0.12,VWS V14.00,2013-05-19 19:22:00,
2013-05-19 15:27:00,57.0,57.0,30.29,South,190,0.0,0.0,100,0.03,,-RA,0.13,VWS V14.00,2013-05-19 19:27:00,
2013-05-19 15:32:00,57.1,57.1,30.29,South,190,0.0,0.0,100,0.03,,-RA,0.13,VWS V14.00,2013-05-19 19:32:00,
2013-05-19 15:37:00,57.2,57.2,30.29,South,190,0.0,0.0,100,0.02,,-RA,0.13,VWS V14.00,2013-05-19 19:37:00,
2013-05-19 15:42:00,57.2,57.2,30.29,South,190,0.0,0.0,100,0.02,,-RA,0.13,VWS V14.00,2013-05-19 19:42:00,
2013-05-19 15:48:00,57.2,57.2,30.28,South,190,0.0,0.0,100,0.02,,-RA,0.13,VWS V14.00,2013-05-19 19:48:00,
2013-05-19 15:53:00,57.1,57.1,30.28,South,190,0.0,0.0,100,0.02,,-RA,0.13,VWS V14.00,2013-05-19 19:53:00,
2013-05-19 15:58:00,57.1,57.1,30.29,South,190,0.0,0.0,100,0.03,,-RA,0.14,VWS V14.00,2013-05-19 19:58:00,
2013-05-19 16:03:00,57.2,57.2,30.29,South,190,0.0,0.0,100,0.02,,OVC090,0.14,VWS V14.00,2013-05-19 20:03:00,
2013-05-19 16:08:00,57.2,57.2,30.28,South,190,0.0,0.0,100,0.02,,OVC090,0.14,VWS V14.00,2013-05-19 20:08:00,
2013-05-19 16:13:00,57.1,57.1,30.28,South,190,0.0,0.0,100,0.02,,OVC090,0.14,VWS V14.00,2013-05-19 20:13:00,
2013-05-19 16:18:00,57.1,57.1,30.28,South,190,0.0,0.0,100,0.02,,OVC090,0.15,VWS V14.00,2013-05-19 20:18:00,
2013-05-19 16:23:00,57.1,57.1,30.29,South,190,0.0,0.0,100,0.03,,OVC090,0.15,VWS V14.00,2013-05-19 20:23:00,
2013-05-19 16:28:00,57.1,57.1,30.28,South,190,0.0,0.0,100,0.02,,OVC090,0.15,VWS V14.00,2013-05-19 20:28:00,
2013-05-19 16:34:00,57.1,57.1,30.28,South,190,0.0,0.0,100,0.02,,OVC090,0.15,VWS V14.00,2013-05-19 20:34:00,
2013-05-19 16:39:00,57.1,57.1,30.29,South,190,0.0,0.0,100,0.03,,OVC090,0.16,VWS V14.00,2013-05-19 20:39:00,
2013-05-19 16:44:00,57.1,57.1,30.29,South,190,0.0,0.0,100,0.03,,OVC090,0.16,VWS V14.00,2013-05-19 20:44:00,
2013-05-19 16:49:00,57.2,57.2,30.28,South,190,0.0,0.0,100,0.03,,OVC090,0.17,VWS V14.00,2013-05-19 20:49:00,
2013-05-19 16:54:00,57.2,57.2,30.28,South,190,0.0,0.0,100,0.03,,OVC090,0.17,VWS V14.00,2013-05-19 20:54:00,
2013-05-19 16:59:00,57.2,57.2,30.27,South,190,0.0,0.0,100,0.03,,OVC075,0.17,VWS V14.00,2013-05-19 20:59:00,
2013-05-19 17:04:00,57.2,57.2,30.28,South,190,0.0,0.0,100,0.04,,OVC075,0.18,VWS V14.00,2013-05-19 21:04:00,
2013-05-19 17:10:00,57.2,57.2,30.28,South,190,0.0,0.0,100,0.03,,OVC075,0.18,VWS V14.00,2013-05-19 21:10:00,
2013-05-19 17:15:00,57.2,57.2,30.28,South,190,0.0,0.0,100,0.03,,OVC075,0.18,VWS V14.00,2013-05-19 21:15:00,
2013-05-19 17:20:00,57.2,57.2,30.28,South,190,0.0,0.0,100,0.04,,OVC075,0.19,VWS V14.00,2013-05-19 21:20:00,
2013-05-19 17:25:00,57.2,57.2,30.28,South,190,0.0,0.0,100,0.04,,OVC075,0.19,VWS V14.00,2013-05-19 21:25:00,
2013-05-19 17:30:00,57.2,57.2,30.28,South,190,0.0,0.0,100,0.03,,OVC075,0.19,VWS V14.00,2013-05-19 21:30:00,
2013-05-19 17:35:00,57.0,57.0,30.28,South,190,0.0,0.0,100,0.04,,OVC075,0.20,VWS V14.00,2013-05-19 21:35:00,
2013-05-19 17:40:00,56.9,56.9,30.27,South,190,0.0,0.0,100,0.04,,OVC075,0.20,VWS V14.00,2013-05-19 21:40:00,
2013-05-19 17:45:00,57.0,57.0,30.27,South,190,0.0,0.0,100,0.03,,OVC075,0.20,VWS V14.00,2013-05-19 21:45:00,
2013-05-19 17:50:00,57.0,57.0,30.28,South,190,0.0,0.0,100,0.04,,OVC075,0.21,VWS V14.00,2013-05-19 21:50:00,
2013-05-19 17:55:00,56.9,56.9,30.28,South,190,0.0,0.0,100,0.04,,OVC075,0.21,VWS V14.00,2013-05-19 21:55:00,
2013-05-19 18:00:00,56.9,56.9,30.28,South,190,0.0,0.0,100,0.03,,-RA,0.21,VWS V14.00,2013-05-19 22:00:00,
2013-05-19 18:06:00,56.8,56.8,30.27,South,190,0.0,0.0,100,0.04,,-RA,0.22,VWS V14.00,2013-05-19 22:06:00,
2013-05-19 18:11:00,56.8,56.8,30.27,South,190,0.0,0.0,100,0.04,,-RA,0.22,VWS V14.00,2013-05-19 22:11:00,
2013-05-19 18:16:00,56.8,56.8,30.28,South,190,0.0,0.0,100,0.03,,-RA,0.22,VWS V14.00,2013-05-19 22:16:00,
2013-05-19 18:21:00,56.7,56.7,30.28,South,190,0.0,0.0,100,0.03,,-RA,0.22,VWS V14.00,2013-05-19 22:21:00,
2013-05-19 18:26:00,56.7,56.7,30.27,South,190,0.0,0.0,100,0.04,,-RA,0.23,VWS V14.00,2013-05-19 22:26:00,
2013-05-19 18:31:00,56.7,56.7,30.27,South,190,0.0,0.0,100,0.04,,-RA,0.23,VWS V14.00,2013-05-19 22:31:00,
2013-05-19 18:36:00,56.7,56.7,30.27,South,190,0.0,0.0,100,0.03,,-RA,0.23,VWS V14.00,2013-05-19 22:36:00,
2013-05-19 18:41:00,56.7,56.7,30.27,South,190,0.0,0.0,100,0.03,,-RA,0.23,VWS V14.00,2013-05-19 22:41:00,
2013-05-19 18:46:00,56.7,56.7,30.27,South,190,0.0,0.0,100,0.04,,-RA,0.24,VWS V14.00,2013-05-19 22:46:00,
2013-05-19 18:52:00,56.7,56.7,30.27,South,190,0.0,0.0,100,0.03,,-RA,0.24,VWS V14.00,2013-05-19 22:52:00,
2013-05-19 18:57:00,56.7,56.7,30.26,South,190,0.0,0.0,100,0.03,,-RA,0.24,VWS V14.00,2013-05-19 22:57:00,
2013-05-19 19:02:00,56.7,56.7,30.26,South,190,0.0,0.0,100,0.03,,-RA,0.24,VWS V14.00,2013-05-19 23:02:00,
2013-05-19 19:07:00,56.7,56.7,30.27,South,190,0.0,0.0,100,0.04,,-RA,0.25,VWS V14.00,2013-05-19 23:07:00,
2013-05-19 19:12:00,56.7,56.7,30.26,South,190,0.0,0.0,100,0.03,,-RA,0.25,VWS V14.00,2013-05-19 23:12:00,
2013-05-19 19:17:00,56.6,56.6,30.26,South,190,0.0,0.0,100,0.03,,-RA,0.25,VWS V14.00,2013-05-19 23:17:00,
2013-05-19 19:22:00,56.5,56.5,30.26,South,190,0.0,0.0,100,0.03,,-RA,0.25,VWS V14.00,2013-05-19 23:22:00,
2013-05-19 19:27:00,56.5,56.5,30.26,South,190,0.0,0.0,100,0.03,,-RA,0.25,VWS V14.00,2013-05-19 23:27:00,
2013-05-19 19:32:00,56.5,56.5,30.26,South,190,0.0,0.0,100,0.02,,-RA,0.25,VWS V14.00,2013-05-19 23:32:00,
2013-05-19 19:37:00,56.5,56.5,30.26,South,190,0.0,0.0,100,0.02,,-RA,0.25,VWS V14.00,2013-05-19 23:37:00,
2013-05-19 19:42:00,56.5,56.5,30.25,South,190,0.0,0.0,100,0.02,,-RA,0.25,VWS V14.00,2013-05-19 23:42:00,
2013-05-19 19:47:00,56.4,56.4,30.25,South,190,0.0,0.0,100,0.03,,-RA,0.26,VWS V14.00,2013-05-19 23:47:00,
2013-05-19 19:53:00,56.4,56.4,30.25,South,190,0.0,0.0,100,0.03,,-RA,0.26,VWS V14.00,2013-05-19 23:53:00,
2013-05-19 19:58:00,56.4,56.4,30.26,South,190,0.0,0.0,100,0.02,,-RA,0.26,VWS V14.00,2013-05-19 23:58:00,
2013-05-19 20:03:00,56.4,56.4,30.26,South,190,0.0,0.0,100,0.02,,OVC160,0.26,VWS V14.00,2013-05-20 00:03:00,
2013-05-19 20:08:00,56.3,56.3,30.25,South,190,0.0,0.0,100,0.02,,OVC160,0.26,VWS V14.00,2013-05-20 00:08:00,
2013-05-19 20:13:00,56.3,56.3,30.25,South,190,0.0,0.0,100,0.02,,OVC160,0.26,VWS V14.00,2013-05-20 00:13:00,
2013-05-19 20:18:00,56.3,56.3,30.25,South,190,0.0,0.0,100,0.03,,OVC160,0.27,VWS V14.00,2013-05-20 00:18:00,
2013-05-19 20:23:00,56.3,56.3,30.25,South,190,0.0,0.0,100,0.02,,OVC160,0.27,VWS V14.00,2013-05-20 00:23:00,
2013-05-19 20:28:00,56.3,56.3,30.24,South,190,0.0,0.0,100,0.02,,OVC160,0.27,VWS V14.00,2013-05-20 00:28:00,
2013-05-19 20:33:00,56.3,56.3,30.24,South,190,0.0,0.0,100,0.03,,OVC160,0.28,VWS V14.00,2013-05-20 00:33:00,
2013-05-19 20:38:00,56.3,56.3,30.25,South,190,0.0,0.0,100,0.03,,OVC160,0.28,VWS V14.00,2013-05-20 00:38:00,
2013-05-19 20:44:00,56.3,56.3,30.26,South,190,0.0,0.0,100,0.03,,OVC160,0.28,VWS V14.00,2013-05-20 00:44:00,
2013-05-19 20:49:00,56.3,56.3,30.26,South,190,0.0,0.0,100,0.03,,OVC160,0.29,VWS V14.00,2013-05-20 00:49:00,
2013-05-19 20:54:00,56.3,56.3,30.25,South,190,0.0,0.0,100,0.03,,OVC160,0.29,VWS V14.00,2013-05-20 00:54:00,
2013-05-19 20:59:00,56.3,56.3,30.25,South,190,0.0,0.0,100,0.04,,OVC160,0.30,VWS V14.00,2013-05-20 00:59:00,
2013-05-19 21:04:00,56.3,56.3,30.26,South,190,0.0,0.0,100,0.03,,OVC170,0.30,VWS V14.00,2013-05-20 01:04:00,
2013-05-19 21:09:00,56.3,56.3,30.26,South,190,0.0,0.0,100,0.03,,OVC170,0.30,VWS V14.00,2013-05-20 01:09:00,
2013-05-19 21:14:00,56.3,56.3,30.25,South,190,0.0,0.0,100,0.04,,OVC170,0.31,VWS V14.00,2013-05-20 01:14:00,
2013-05-19 21:19:00,56.3,56.3,30.25,South,190,0.0,0.0,100,0.04,,OVC170,0.31,VWS V14.00,2013-05-20 01:19:00,
2013-05-19 21:24:00,56.3,56.3,30.25,South,190,0.0,0.0,100,0.03,,OVC170,0.31,VWS V14.00,2013-05-20 01:24:00,
2013-05-19 21:29:00,56.3,56.3,30.26,South,190,0.0,0.0,100,0.04,,OVC170,0.32,VWS V14.00,2013-05-20 01:29:00,
2013-05-19 21:34:00,56.3,56.3,30.25,South,190,0.0,0.0,100,0.04,,OVC170,0.32,VWS V14.00,2013-05-20 01:34:00,
2013-05-19 21:39:00,56.3,56.3,30.25,South,190,0.0,0.0,100,0.03,,OVC170,0.32,VWS V14.00,2013-05-20 01:39:00,
2013-05-19 21:44:00,56.3,56.3,30.25,South,190,0.0,0.0,100,0.03,,OVC170,0.32,VWS V14.00,2013-05-20 01:44:00,
2013-05-19 21:50:00,56.3,56.3,30.25,South,190,0.0,0.0,100,0.03,,OVC170,0.32,VWS V14.00,2013-05-20 01:50:00,
2013-05-19 21:55:00,56.3,56.3,30.25,South,190,0.0,0.0,100,0.03,,OVC170,0.32,VWS V14.00,2013-05-20 01:55:00,
2013-05-19 22:00:00,56.3,56.3,30.25,South,190,0.0,0.0,100,0.02,,OVC160,0.32,VWS V14.00,2013-05-20 02:00:00,
2013-05-19 22:05:00,56.3,56.3,30.24,South,190,0.0,0.0,100,0.03,,OVC160,0.33,VWS V14.00,2013-05-20 02:05:00,
2013-05-19 22:10:00,56.2,56.2,30.24,South,190,0.0,0.0,100,0.03,,OVC160,0.33,VWS V14.00,2013-05-20 02:10:00,
2013-05-19 22:15:00,56.2,56.2,30.25,South,190,0.0,0.0,100,0.03,,OVC160,0.33,VWS V14.00,2013-05-20 02:15:00,
2013-05-19 22:20:00,56.3,56.3,30.25,South,190,0.0,0.0,100,0.02,,OVC160,0.33,VWS V14.00,2013-05-20 02:20:00,
2013-05-19 22:25:00,56.3,56.3,30.24,South,190,0.0,0.0,100,0.02,,OVC160,0.33,VWS V14.00,2013-05-20 02:25:00,
2013-05-19 22:30:00,56.3,56.3,30.24,South,190,0.0,0.0,100,0.02,,OVC160,0.33,VWS V14.00,2013-05-20 02:30:00,
2013-05-19 22:35:00,56.3,56.3,30.24,South,190,0.0,0.0,100,0.02,,OVC160,0.33,VWS V14.00,2013-05-20 02:35:00,
2013-05-19 22:40:00,56.3,56.3,30.24,South,190,0.0,0.0,100,0.02,,OVC160,0.33,VWS V14.00,2013-05-20 02:40:00,
2013-05-19 22:46:00,56.3,56.3,30.24,South,190,0.0,0.0,100,0.02,,OVC160,0.33,VWS V14.00,2013-05-20 02:46:00,
2013-05-19 22:51:00,56.3,56.3,30.24,South,190,0.0,0.0,100,0.01,,OVC160,0.33,VWS V14.00,2013-05-20 02:51:00,
2013-05-19 22:56:00,56.3,56.3,30.23,South,190,0.0,0.0,100,0.01,,OVC160,0.33,VWS V14.00,2013-05-20 02:56:00,
2013-05-19 23:01:00,56.3,56.3,30.23,South,190,0.0,0.0,100,0.01,,OVC170,0.33,VWS V14.00,2013-05-20 03:01:00,
2013-05-19 23:06:00,56.2,56.2,30.24,South,190,0.0,0.0,100,0.01,,OVC170,0.33,VWS V14.00,2013-05-20 03:06:00,
2013-05-19 23:11:00,56.3,56.3,30.23,South,190,0.0,0.0,100,0.01,,OVC170,0.33,VWS V14.00,2013-05-20 03:11:00,
2013-05-19 23:16:00,56.3,56.3,30.23,South,190,0.0,0.0,100,0.01,,OVC170,0.33,VWS V14.00,2013-05-20 03:16:00,
2013-05-19 23:21:00,56.3,56.3,30.23,South,190,0.0,0.0,100,0.02,,OVC170,0.34,VWS V14.00,2013-05-20 03:21:00,
2013-05-19 23:26:00,56.3,56.3,30.23,South,190,0.0,0.0,100,0.02,,OVC170,0.34,VWS V14.00,2013-05-20 03:26:00,
2013-05-19 23:31:00,56.3,56.3,30.23,South,190,0.0,0.0,100,0.02,,OVC170,0.34,VWS V14.00,2013-05-20 03:31:00,
2013-05-19 23:36:00,56.3,56.3,30.22,South,190,0.0,0.0,100,0.01,,OVC170,0.34,VWS V14.00,2013-05-20 03:36:00,
2013-05-19 23:41:00,56.3,56.3,30.22,South,190,0.0,0.0,100,0.01,,OVC170,0.34,VWS V14.00,2013-05-20 03:41:00,
2013-05-19 23:47:00,56.3,56.3,30.21,South,190,0.0,0.0,100,0.01,,OVC170,0.34,VWS V14.00,2013-05-20 03:47:00,
2013-05-19 23:52:00,56.4,56.4,30.22,South,190,0.0,0.0,100,0.01,,OVC170,0.34,VWS V14.00,2013-05-20 03:52:00,
2013-05-19 23:57:00,56.4,56.4,30.21,South,190,0.0,0.0,100,0.01,,OVC170,0.34,VWS V14.00,2013-05-20 03:57:00,